Location: Berville
(49.1893°N, 2.0748°E)
Time: 19:06:19
(UTC+00:00)

FENGYUN 1C DEB - Pass Details

Date: 02 March 2024
Orbit: 768 x 960 km, 99.0° (Epoch: 13 April)

Event Time Altitude Azimuth Distance (km) Brightness Sun altitude
Exits shadow 18:19:07 - 70° (ENE) 2,909 ? -7.7°
Reaches altitude 10° 18:21:14 10° 51° (NE) 2,679 ? -8.0°
Maximum altitude 18:21:54 10° 44° (NE) 2,661 ? -8.1°
Drops below altitude 10° 18:22:35 10° 38° (NE) 2,672 ? -8.2°
Sets 18:27:50 0° 358° (N) 3,578 ? -9.1°
